CW3403 Weather Reports


time (UTC)temp
C
wind
direction
speed
KPH
gust
KPH
rain 1hr
cm
rain 24hr
cm
rain mn
cm
humidity
%
barometer
mb
20260510175744 19 359 8.0 8.0 0.00 0.00 0.00 41 1017.4
20260510175239 19 6 4.8 4.8 0.00 0.00 0.00 45 1017.5
20260510174737 18 352 6.4 8.0 0.00 0.00 0.00 46 1017.5
20260510174234 19 316 3.2 3.2 0.00 0.00 0.00 46 1017.7
20260510173730 18 305 0.0 0.0 0.00 0.00 0.00 52 1017.7
20260510173226 18 31 1.6 1.6 0.00 0.00 0.00 51 1017.6
20260510172721 18 50 0.0 1.6 0.00 0.00 0.00 52 1018.0
20260510172218 18 347 4.8 8.0 0.00 0.00 0.00 48 1017.9
20260510171715 18 350 4.8 8.0 0.00 0.00 0.00 49 1017.8
20260510171212 18 317 1.6 1.6 0.00 0.00 0.00 47 1017.8
20260510170709 18 308 1.6 3.2 0.00 0.00 0.00 48 1018.1
20260510170205 18 136 3.2 3.2 0.00 0.00 0.00 46 1017.8
20260510165701 18 90 1.6 3.2 0.00 0.00 0.00 46 1018.0
20260510165157 18 51 3.2 4.8 0.00 0.00 0.00 45 1017.9
20260510164655 18 310 3.2 3.2 0.00 0.00 0.00 45 1017.9
20260510164152 18 344 0.0 1.6 0.00 0.00 0.00 54 1017.8
20260510163647 18 40 3.2 4.8 0.00 0.00 0.00 43 1018.0
20260510163143 17 351 4.8 8.0 0.00 0.00 0.00 47 1018.2
20260510162643 18 327 6.4 8.0 0.00 0.00 0.00 48 1018.0
20260510162140 17 43 1.6 1.6 0.00 0.00 0.00 50 1017.7
20260510161636 17 359 3.2 3.2 0.00 0.00 0.00 47 1017.9
20260510161133 17 317 1.6 1.6 0.00 0.00 0.00 51 1017.9
20260510160630 17 37 3.2 3.2 0.00 0.00 0.00 53 1017.7
20260510160130 17 303 3.2 3.2 0.00 0.00 0.00 56 1017.8
20260510155626 17 342 8.0 9.7 0.00 0.00 0.00 50 1017.6
20260510155122 17 353 1.6 1.6 0.00 0.00 0.00 59 1017.6
20260510154618 16 341 3.2 4.8 0.00 0.00 0.00 58 1017.5
20260510154114 16 318 1.6 3.2 0.00 0.00 0.00 58 1017.5
20260510153609 16 78 4.8 8.0 0.00 0.00 0.00 58 1017.5
20260510153106 17 78 1.6 3.2 0.00 0.00 0.00 60 1017.3
20260510152602 16 318 0.0 1.6 0.00 0.00 0.00 61 1017.5
20260510152054 16 336 1.6 3.2 0.00 0.00 0.00 62 1017.5
20260510151550 16 31 0.0 1.6 0.00 0.00 0.00 64 1017.4
20260510151048 16 328 3.2 3.2 0.00 0.00 0.00 63 1017.2
20260510150547 16 23 4.8 4.8 0.00 0.00 0.00 62 1017.2
20260510150043 16 342 3.2 4.8 0.00 0.00 0.00 65 1016.8
20260510145540 15 321 0.0 0.0 0.00 0.00 0.00 65 1016.7
20260510145037 16 103 4.8 4.8 0.00 0.00 0.00 64 1016.7
20260510144533 15 349 1.6 1.6 0.00 0.00 0.00 66 1016.6
20260510144030 15 18 6.4 9.7 0.00 0.00 0.00 64 1016.6
20260510143525 16 349 1.6 1.6 0.00 0.00 0.00 64 1016.7
20260510143022 16 332 3.2 4.8 0.00 0.00 0.00 68 1016.5
20260510142519 15 9 3.2 3.2 0.00 0.00 0.00 64 1016.3
20260510142015 16 343 4.8 4.8 0.00 0.00 0.00 67 1016.6
20260510141512 15 79 3.2 3.2 0.00 0.00 0.00 67 1016.3
20260510141010 14 324 0.0 1.6 0.00 0.00 0.00 68 1016.3
20260510140506 14 2 1.6 1.6 0.00 0.00 0.00 71 1016.4
20260510140006 13 329 1.6 1.6 0.00 0.00 0.00 70 1016.4
20260510135501 13 324 1.6 1.6 0.00 0.00 0.00 71 1016.4
20260510134958 13 314 0.0 1.6 0.00 0.00 0.00 71 1016.2
20260510134455 13 345 0.0 1.6 0.00 0.00 0.00 73 1016.4
20260510133952 13 330 1.6 1.6 0.00 0.00 0.00 73 1016.3
20260510133448 13 340 4.8 4.8 0.00 0.00 0.00 72 1016.5
20260510132943 13 313 3.2 3.2 0.00 0.00 0.00 75 1016.4
20260510132441 12 313 0.0 0.0 0.00 0.00 0.00 74 1016.0
20260510131938 12 286 0.0 1.6 0.00 0.00 0.00 76 1016.4
20260510131435 12 302 0.0 0.0 0.00 0.00 0.00 76 1016.2
20260510130932 12 319 1.6 1.6 0.00 0.00 0.00 77 1015.9
20260510130429 12 325 1.6 3.2 0.00 0.00 0.00 79 1015.9
20260510125926 12 322 4.8 4.8 0.00 0.00 0.00 78 1016.0
20260510125421 12 343 3.2 3.2 0.00 0.00 0.00 78 1015.9
20260510124919 13 335 1.6 1.6 0.00 0.00 0.00 77 1015.3
20260510124416 13 344 1.6 3.2 0.00 0.00 0.00 76 1015.4
20260510123912 13 283 1.6 1.6 0.00 0.00 0.00 77 1015.2
20260510123407 13 327 1.6 1.6 0.00 0.00 0.00 76 1015.4
20260510122904 13 349 1.6 1.6 0.00 0.00 0.00 76 1015.3
20260510122359 13 316 0.0 0.0 0.00 0.00 0.00 77 1015.4
20260510121855 13 319 1.6 1.6 0.00 0.00 0.00 78 1015.3
20260510121353 13 312 0.0 0.0 0.00 0.00 0.00 78 1015.4
20260510120850 13 334 1.6 3.2 0.00 0.00 0.00 77 1015.2
20260510120348 13 327 0.0 1.6 0.00 0.00 0.00 78 1015.3
20260510115843 13 349 4.8 4.8 0.00 0.00 0.00 77 1015.1
20260510115341 13 308 0.0 1.6 0.00 0.00 0.00 78 1015.0
20260510114836 13 339 3.2 3.2 0.00 0.00 0.00 78 1014.8
20260510114334 13 353 4.8 4.8 0.00 0.00 0.00 78 1014.8
20260510113833 13 312 0.0 0.0 0.00 0.00 0.00 79 1014.9
20260510113330 13 328 3.2 3.2 0.00 0.00 0.00 79 1014.7
20260510112827 13 319 3.2 3.2 0.00 0.00 0.00 79 1014.7
20260510112324 13 329 1.6 1.6 0.00 0.00 0.00 79 1014.6
20260510111820 13 316 0.0 1.6 0.00 0.00 0.00 80 1014.5
20260510111317 13 336 1.6 3.2 0.00 0.00 0.00 80 1014.3
20260510110817 13 306 0.0 0.0 0.00 0.00 0.00 80 1014.3
20260510110314 13 320 1.6 3.2 0.00 0.00 0.00 80 1014.2
20260510105810 13 317 1.6 1.6 0.00 0.00 0.00 81 1013.9
20260510105306 13 340 1.6 3.2 0.00 0.00 0.00 82 1014.0
20260510104801 13 312 0.0 1.6 0.00 0.00 0.00 82 1013.8
20260510104259 13 308 1.6 1.6 0.00 0.00 0.00 83 1013.6
20260510103755 13 287 3.2 3.2 0.00 0.00 0.00 84 1013.6
20260510103252 13 314 1.6 1.6 0.00 0.00 0.00 85 1013.4
20260510102752 13 297 0.0 0.0 0.00 0.00 0.00 85 1013.0
20260510102248 13 327 1.6 1.6 0.00 0.00 0.00 85 1013.1
20260510101745 13 285 0.0 1.6 0.00 0.00 0.00 85 1013.1
20260510101244 13 284 0.0 0.0 0.00 0.00 0.00 84 1013.0
20260510100739 13 306 1.6 1.6 0.00 0.00 0.00 84 1012.8
20260510100238 13 307 0.0 1.6 0.00 0.00 0.00 84 1013.0
20260510095733 13 309 1.6 1.6 0.00 0.00 0.00 84 1012.8
20260510095228 13 296 0.0 0.0 0.00 0.00 0.00 84 1013.0
20260510094727 13 291 3.2 3.2 0.00 0.00 0.00 85 1012.6
20260510094223 13 296 1.6 1.6 0.00 0.00 0.00 87 1012.8
20260510093719 13 286 0.0 0.0 0.00 0.00 0.00 87 1012.8
20260510093216 13 290 0.0 0.0 0.00 0.00 0.00 86 1012.7
20260510092712 13 260 0.0 0.0 0.00 0.00 0.00 86 1012.8
20260510092208 13 290 0.0 0.0 0.00 0.00 0.00 87 1012.5
20260510091704 13 232 0.0 1.6 0.00 0.00 0.00 87 1012.3
20260510091200 13 289 0.0 0.0 0.00 0.00 0.00 86 1012.2
20260510090657 13 261 0.0 0.0 0.00 0.00 0.00 86 1012.1
20260510090154 13 259 0.0 0.0 0.00 0.00 0.00 85 1011.9
20260510085649 13 249 0.0 0.0 0.00 0.00 0.00 84 1011.7
20260510085144 14 278 0.0 0.0 0.00 0.00 0.00 83 1011.7
20260510084641 14 312 0.0 0.0 0.00 0.00 0.00 83 1011.6
20260510084137 14 262 1.6 1.6 0.00 0.00 0.00 82 1011.5
20260510083634 15 264 0.0 0.0 0.00 0.00 0.00 81 1011.9
20260510083131 15 323 1.6 1.6 0.00 0.00 0.00 81 1011.4
20260510082627 14 233 0.0 0.0 0.00 0.00 0.00 82 1011.3
20260510082123 15 249 0.0 0.0 0.00 0.00 0.00 82 1011.5
20260510081623 15 295 0.0 0.0 0.00 0.00 0.00 81 1011.3
20260510081120 15 241 0.0 0.0 0.00 0.00 0.00 81 1011.3
20260510080619 15 246 1.6 1.6 0.00 0.00 0.00 81 1011.2
20260510080116 15 255 0.0 0.0 0.00 0.00 0.00 82 1011.3
20260510075613 15 203 1.6 1.6 0.00 0.00 0.00 82 1011.3
20260510075110 15 255 0.0 0.0 0.00 0.00 0.00 81 1011.5
20260510074607 15 283 0.0 0.0 0.00 0.00 0.00 80 1011.2
20260510074103 15 272 0.0 0.0 0.00 0.00 0.00 79 1011.2
20260510073559 15 323 1.6 1.6 0.00 0.00 0.00 78 1011.2
20260510073056 16 197 1.6 1.6 0.00 0.00 0.00 78 1011.2
20260510072553 16 285 0.0 0.0 0.00 0.00 0.00 79 1011.6
20260510072048 16 281 0.0 0.0 0.00 0.00 0.00 78 1011.4
20260510071545 16 255 3.2 3.2 0.00 0.00 0.00 78 1011.4
20260510071043 16 257 0.0 0.0 0.00 0.00 0.00 78 1011.3
20260510070539 16 267 0.0 0.0 0.00 0.00 0.00 78 1011.3
20260510070037 16 259 1.6 3.2 0.00 0.00 0.00 78 1011.7
20260510065533 16 225 1.6 1.6 0.00 0.00 0.00 77 1011.5
20260510065029 16 296 0.0 1.6 0.00 0.00 0.00 76 1011.3
20260510064526 16 256 0.0 1.6 0.00 0.00 0.00 76 1011.1
20260510064022 16 219 1.6 1.6 0.00 0.00 0.00 76 1011.4
20260510063519 16 276 0.0 0.0 0.00 0.00 0.00 76 1011.3
20260510063017 16 227 1.6 3.2 0.00 0.00 0.00 75 1011.8
20260510062512 16 217 1.6 1.6 0.00 0.00 0.00 75 1011.7
20260510062007 16 252 3.2 3.2 0.00 0.00 0.00 75 1011.4
20260510061505 16 256 1.6 1.6 0.00 0.00 0.00 75 1011.7
20260510061001 16 281 1.6 1.6 0.00 0.00 0.00 76 1011.6
20260510060458 16 268 0.0 0.0 0.00 0.00 0.00 75 1011.5
20260510055954 17 260 0.0 1.6 0.00 0.00 0.00 74 1011.5
20260510055449 17 255 0.0 0.0 0.00 0.00 0.00 74 1011.5
20260510054948 16 183 1.6 3.2 0.00 0.00 0.00 74 1011.3
20260510054443 16 266 1.6 1.6 0.00 0.00 0.00 74 1011.3
20260510053938 16 229 1.6 3.2 0.00 0.00 0.00 75 1011.3
20260510053434 16 243 3.2 4.8 0.00 0.00 0.00 74 1011.2
20260510052930 16 227 4.8 4.8 0.00 0.00 0.00 75 1011.3
20260510052426 16 293 4.8 4.8 0.00 0.00 0.00 74 1011.1
20260510051922 16 190 4.8 4.8 0.00 0.00 0.00 75 1011.4
20260510051419 16 220 0.0 0.0 0.00 0.00 0.00 75 1011.3
20260510050915 16 188 4.8 8.0 0.00 0.00 0.00 75 1011.3
20260510050412 16 227 3.2 3.2 0.00 0.00 0.00 74 1011.1
20260510045909 16 257 0.0 0.0 0.00 0.00 0.00 74 1011.3
20260510045406 16 270 4.8 8.0 0.00 0.00 0.00 74 1011.0
20260510044903 16 233 3.2 3.2 0.00 0.00 0.00 73 1011.2
20260510044400 17 280 1.6 3.2 0.00 0.00 0.00 73 1011.0
20260510043857 17 244 1.6 1.6 0.00 0.00 0.00 73 1011.1
20260510043352 17 264 6.4 9.7 0.00 0.00 0.00 73 1011.0
20260510042851 17 206 3.2 3.2 0.00 0.00 0.00 72 1011.0
20260510042346 17 261 1.6 3.2 0.00 0.00 0.00 72 1011.0
20260510041843 17 250 4.8 8.0 0.00 0.00 0.00 71 1011.1
20260510041340 17 193 3.2 3.2 0.00 0.00 0.00 71 1011.0
20260510040837 17 259 3.2 4.8 0.00 0.00 0.00 71 1011.1
20260510040334 17 208 1.6 4.8 0.00 0.00 0.00 70 1011.0
20260510035829 17 243 4.8 8.0 0.00 0.79 0.79 70 1011.1
20260510035326 17 231 6.4 9.7 0.00 0.79 0.79 69 1010.9
20260510034821 17 268 4.8 4.8 0.00 0.79 0.79 69 1010.8
20260510034319 17 200 4.8 4.8 0.00 0.79 0.79 69 1010.7
20260510033816 17 211 3.2 3.2 0.00 0.79 0.79 68 1010.7
20260510033313 17 268 8.0 11.3 0.00 0.79 0.79 67 1010.8
20260510032809 17 222 1.6 1.6 0.00 0.79 0.79 67 1010.7
20260510032306 17 221 6.4 8.0 0.00 0.79 0.79 68 1010.9
20260510031801 17 263 3.2 3.2 0.00 0.79 0.79 67 1010.8
20260510031257 17 269 4.8 4.8 0.00 0.79 0.79 67 1010.7
20260510030750 17 227 1.6 1.6 0.00 0.79 0.79 66 1010.6
20260510030248 17 187 3.2 3.2 0.00 0.79 0.79 67 1010.7
20260510025745 17 188 1.6 4.8 0.00 0.79 0.79 66 1010.6
20260510025243 17 259 3.2 3.2 0.00 0.79 0.79 65 1010.6
20260510024740 17 198 8.0 9.7 0.00 0.79 0.79 65 1010.4
20260510024236 17 245 4.8 4.8 0.00 0.79 0.79 65 1010.4
20260510023732 17 178 4.8 8.0 0.00 0.79 0.79 66 1010.6
20260510023229 17 175 6.4 11.3 0.00 0.79 0.79 66 1010.6
20260510022725 17 233 3.2 3.2 0.00 0.79 0.79 66 1010.4
20260510022225 17 196 4.8 4.8 0.00 0.79 0.79 65 1010.2
20260510021720 17 231 1.6 3.2 0.00 0.79 0.79 65 1010.1
20260510021218 17 254 1.6 3.2 0.00 0.79 0.79 65 1010.3
20260510020713 17 211 1.6 1.6 0.00 0.79 0.79 65 1010.3
20260510020208 17 235 0.0 0.0 0.00 0.79 0.79 65 1010.3
20260510015704 17 251 1.6 1.6 0.00 0.79 0.79 64 1010.2
20260510015201 17 240 1.6 1.6 0.00 0.79 0.79 63 1010.0
20260510014701 17 229 0.0 0.0 0.00 0.79 0.79 64 1009.9
20260510014200 17 241 0.0 0.0 0.00 0.79 0.79 64 1009.8
20260510013700 17 261 1.6 1.6 0.00 0.79 0.79 63 1010.1
20260510013156 17 226 1.6 1.6 0.00 0.79 0.79 63 1009.8
20260510012655 17 250 0.0 0.0 0.00 0.79 0.79 64 1009.9
20260510012151 17 244 0.0 0.0 0.00 0.79 0.79 63 1009.9
20260510011646 17 233 0.0 0.0 0.00 0.79 0.79 62 1009.6
20260510011142 18 238 0.0 0.0 0.00 0.79 0.79 60 1009.7
20260510010638 18 233 0.0 1.6 0.00 0.79 0.79 59 1009.5
20260510010136 18 249 0.0 0.0 0.00 0.79 0.79 59 1009.4
20260510005631 18 240 1.6 1.6 0.00 0.79 0.79 58 1009.4
20260510005128 18 215 0.0 1.6 0.00 0.79 0.79 58 1009.4
20260510004627 18 181 1.6 1.6 0.00 0.79 0.79 57 1009.4
20260510004124 19 166 3.2 3.2 0.00 0.79 0.79 57 1009.4
20260510003621 19 239 0.0 0.0 0.00 0.79 0.79 56 1009.2
20260510003117 19 240 0.0 1.6 0.00 0.79 0.79 55 1009.0
20260510002612 19 250 0.0 0.0 0.00 0.79 0.79 57 1009.0
20260510002109 20 224 0.0 0.0 0.00 0.79 0.79 55 1009.0
20260510001606 20 234 4.8 4.8 0.00 0.79 0.79 54 1008.6
20260510001105 20 92 1.6 3.2 0.00 0.79 0.79 53 1008.6
20260510000605 20 264 3.2 4.8 0.00 0.79 0.79 52 1008.7
20260509235558 20 262 3.2 3.2 0.00 0.79 0.79 52 1008.7
20260509235055 20 211 0.0 1.6 0.00 0.79 0.79 52 1008.5
20260509234551 20 230 3.2 4.8 0.00 0.79 0.79 51 1008.6
20260509234049 21 229 1.6 3.2 0.00 0.79 0.79 50 1008.5
20260509233547 21 198 4.8 4.8 0.00 0.79 0.79 50 1008.7
20260509233044 21 153 6.4 8.0 0.00 0.79 0.79 50 1008.3
20260509232540 21 251 4.8 8.0 0.00 0.79 0.79 50 1008.2
20260509232037 21 181 1.6 3.2 0.00 0.79 0.79 52 1008.2
20260509231533 21 285 3.2 3.2 0.00 0.79 0.79 50 1008.5
20260509231032 21 240 8.0 12.9 0.00 0.79 0.79 49 1008.0
20260509230528 21 210 8.0 12.9 0.00 0.79 0.79 50 1008.6
20260509230025 21 236 6.4 9.7 0.00 0.79 0.79 49 1008.3
20260509225520 21 202 4.8 4.8 0.00 0.79 0.79 51 1008.6
20260509225016 21 201 3.2 3.2 0.00 0.79 0.79 51 1008.6
20260509224512 21 304 6.4 8.0 0.00 0.79 0.79 49 1008.6
20260509224009 21 158 6.4 9.7 0.00 0.79 0.79 49 1008.5
20260509223505 21 197 8.0 11.3 0.00 0.79 0.79 49 1008.3
20260509223004 21 161 9.7 12.9 0.00 0.79 0.79 48 1008.2
20260509222459 21 233 8.0 9.7 0.00 0.79 0.79 49 1008.1
20260509221954 21 304 6.4 8.0 0.00 0.79 0.79 50 1008.6
20260509221451 21 254 6.4 11.3 0.00 0.79 0.79 49 1008.3
20260509220947 21 228 6.4 8.0 0.00 0.79 0.79 50 1008.1
20260509220443 21 285 1.6 1.6 0.00 0.79 0.79 51 1008.3
20260509215939 21 160 3.2 3.2 0.00 0.79 0.79 51 1008.7
20260509215435 21 176 8.0 11.3 0.00 0.79 0.79 50 1008.5
20260509214932 21 296 9.7 11.3 0.00 0.79 0.79 49 1008.5
20260509214430 21 264 6.4 8.0 0.00 0.79 0.79 50 1008.5
20260509213926 22 228 6.4 9.7 0.00 0.79 0.79 51 1008.8
20260509213422 22 255 6.4 9.7 0.00 0.79 0.79 49 1008.9
20260509212920 22 34 4.8 8.0 0.00 0.79 0.79 50 1008.8
20260509212417 21 255 3.2 3.2 0.00 0.79 0.79 49 1008.7
20260509211913 21 196 4.8 4.8 0.00 0.79 0.79 52 1008.8
20260509211409 22 204 4.8 4.8 0.00 0.79 0.79 52 1008.8
20260509210905 21 259 4.8 8.0 0.00 0.79 0.79 52 1008.7
20260509210403 22 263 1.6 3.2 0.00 0.79 0.79 51 1008.8
20260509205903 22 295 1.6 3.2 0.00 0.79 0.79 49 1009.0
20260509205358 22 251 4.8 4.8 0.00 0.79 0.79 50 1008.9
20260509204855 21 256 3.2 3.2 0.00 0.79 0.79 53 1008.8
20260509204351 21 213 4.8 8.0 0.00 0.79 0.79 52 1008.8
20260509203848 21 171 6.4 9.7 0.00 0.79 0.79 52 1008.8
20260509203344 22 204 4.8 8.0 0.00 0.79 0.79 50 1008.7
20260509202841 22 285 4.8 4.8 0.00 0.79 0.79 51 1008.7
20260509202337 21 263 3.2 4.8 0.00 0.79 0.79 51 1008.9
20260509201837 21 237 4.8 4.8 0.00 0.79 0.79 53 1008.9
20260509201328 21 261 8.0 9.7 0.00 0.79 0.79 50 1008.9
20260509200824 22 246 8.0 12.9 0.00 0.79 0.79 51 1009.1
20260509200320 22 166 8.0 9.7 0.00 0.79 0.79 52 1009.0
20260509195817 21 239 1.6 3.2 0.00 0.79 0.79 52 1009.5
20260509195316 21 254 8.0 12.9 0.00 0.79 0.79 55 1009.3
20260509194816 21 233 9.7 11.3 0.00 0.79 0.79 52 1009.5
20260509194312 22 226 0.0 1.6 0.00 0.79 0.79 57 1009.4
20260509193809 21 304 0.0 0.0 0.00 0.79 0.79 54 1009.4
20260509193309 21 214 9.7 11.3 0.00 0.79 0.79 53 1009.5
20260509192805 21 184 9.7 12.9 0.00 0.79 0.79 55 1009.4
20260509192305 21 150 3.2 4.8 0.00 0.79 0.79 60 1009.7
20260509191756 20 258 9.7 14.5 0.00 0.79 0.79 58 1009.7
20260509191253 21 247 4.8 8.0 0.00 0.79 0.79 55 1009.6
20260509190749 21 171 8.0 11.3 0.00 0.79 0.79 56 1009.6
20260509190246 21 247 4.8 8.0 0.00 0.79 0.79 59 1009.7
20260509185743 21 171 6.4 8.0 0.00 0.79 0.79 55 1009.7
20260509185240 21 233 6.4 9.7 0.00 0.79 0.79 59 1009.8
20260509184737 20 227 3.2 4.8 0.00 0.79 0.79 58 1010.0
20260509184234 20 214 3.2 3.2 0.00 0.79 0.79 56 1009.9
20260509183731 19 259 4.8 4.8 0.00 0.79 0.79 62 1010.0
20260509183226 19 249 4.8 8.0 0.00 0.79 0.79 62 1009.9
20260509182721 19 183 4.8 4.8 0.00 0.79 0.79 64 1009.8
20260509182219 20 200 4.8 4.8 0.00 0.79 0.79 59 1009.8
20260509181717 21 280 6.4 12.9 0.00 0.79 0.79 55 1010.1
20260509181214 20 255 3.2 3.2 0.00 0.79 0.79 62 1010.0
20260509180711 20 192 3.2 4.8 0.00 0.79 0.79 59 1010.0
20260509180207 19 191 4.8 4.8 0.00 0.79 0.79 62 1009.9